DW7011 Weather Reports


time (UTC)temp
F
wind
direction
speed
knots
gust
knots
rain 1hr
in
rain 24hr
in
rain mn
in
humidity
%
barometer
mb
20260504231332 70 96 2.6 7.8 0.00 0.00 0.00 42 1009.4
20260504230325 71 143 3.5 7.0 0.00 0.00 0.00 42 1009.4
20260504225340 71 102 0.9 9.6 0.00 0.00 0.00 42 1009.4
20260504224336 71 155 2.6 7.0 0.00 0.00 0.00 41 1009.4
20260504223323 72 250 2.6 9.6 0.00 0.00 0.00 40 1009.4
20260504222336 72 243 3.5 12.2 0.00 0.00 0.00 41 1009.4
20260504221333 72 229 2.6 9.6 0.00 0.00 0.00 40 1009.4
20260504215326 74 266 4.3 10.4 0.00 0.00 0.00 37 1009.4
20260504214344 74 259 5.2 12.2 0.00 0.00 0.00 36 1009.4
20260504213324 74 227 4.3 10.4 0.00 0.00 0.00 37 1009.4
20260504212341 75 238 4.3 7.8 0.00 0.00 0.00 35 1009.5
20260504211338 75 250 3.5 7.8 0.00 0.00 0.00 35 1009.4
20260504210334 74 256 5.2 11.3 0.00 0.00 0.00 36 1009.4
20260504205348 75 264 2.6 7.8 0.00 0.00 0.00 37 1009.5
20260504204337 75 282 4.3 8.7 0.00 0.00 0.00 36 1009.5
20260504203327 75 264 3.5 10.4 0.00 0.00 0.00 36 1009.6
20260504202324 75 297 2.6 9.6 0.00 0.00 0.00 37 1009.7
20260504200336 74 210 4.3 11.3 0.00 0.00 0.00 35 1009.9
20260504195323 73 266 4.3 9.6 0.00 0.00 0.00 36 1010.2
20260504194336 73 212 6.1 9.6 0.00 0.00 0.00 36 1010.4
20260504193333 74 225 6.1 12.2 0.00 0.00 0.00 35 1010.4
20260504192329 74 259 4.3 11.3 0.00 0.00 0.00 38 1010.6
20260504191347 73 228 4.3 9.6 0.00 0.00 0.00 37 1010.7
20260504190452 73 232 6.1 13.0 0.00 0.00 0.00 36 1010.9
20260504185347 74 274 3.5 7.8 0.00 0.00 0.00 36 1011.0
20260504184342 72 200 4.3 9.6 0.00 0.00 0.00 37 1011.1
20260504183326 73 259 5.2 10.4 0.00 0.00 0.00 36 1011.3
20260504182339 72 246 3.5 8.7 0.00 0.00 0.00 36 1011.3
20260504181339 72 258 2.6 7.8 0.00 0.00 0.00 38 1011.4
20260504180333 72 146 2.6 11.3 0.00 0.00 0.00 38 1011.6
20260504175345 71 206 6.1 13.9 0.00 0.00 0.00 36 1011.8
20260504174336 72 257 1.7 10.4 0.00 0.00 0.00 39 1011.8
20260504173330 71 252 3.5 11.3 0.00 0.00 0.00 40 1012.0
20260504172329 71 224 3.5 10.4 0.00 0.00 0.00 36 1012.2
20260504171343 71 278 5.2 12.2 0.00 0.00 0.00 38 1012.3
20260504170329 70 287 4.3 9.6 0.00 0.00 0.00 37 1012.5
20260504150326 66 212 3.5 8.7 0.00 0.00 0.00 39 1014.1
20260504140330 62 233 1.7 7.0 0.00 0.00 0.00 47 1014.3
20260504130330 57 139 0.9 4.3 0.00 0.00 0.00 55 1014.6
20260504110322 45 233 0.0 0.9 0.00 0.00 0.00 75 1014.8
20260504100330 38 230 0.0 0.9 0.00 0.00 0.00 82 1015.0
20260504080341 40 230 0.0 0.9 0.00 0.00 0.00 78 1015.3
20260504070329 41 230 0.0 0.9 0.00 0.00 0.00 79 1015.4
20260504050327 43 231 0.0 0.9 0.00 0.00 0.00 75 1015.5
20260504045324 43 231 0.0 0.9 0.00 0.00 0.00 74 1015.5
20260504044339 42 172 0.0 0.0 0.00 0.00 0.00 75 1015.4
20260504043325 43 226 0.9 0.9 0.00 0.00 0.00 74 1015.4
20260504041337 42 238 0.0 0.9 0.00 0.00 0.00 76 1015.3
20260504040331 43 238 0.0 0.9 0.00 0.00 0.00 75 1015.1
20260504035329 43 238 0.0 0.0 0.00 0.00 0.00 75 1015.1
20260504034346 43 238 0.0 0.9 0.00 0.00 0.00 74 1015.1
20260504032330 44 238 0.0 0.9 0.00 0.00 0.00 73 1015.0
20260504030324 45 238 0.0 0.9 0.00 0.00 0.00 71 1014.9
20260504025337 45 238 0.0 0.9 0.00 0.00 0.00 68 1014.9
20260504024336 46 238 0.0 0.9 0.00 0.00 0.00 67 1014.8
20260504022346 46 238 0.0 0.0 0.00 0.00 0.00 66 1014.8
20260504021337 47 238 0.0 0.9 0.00 0.00 0.00 64 1014.8
20260504020328 47 238 0.0 0.9 0.00 0.00 0.00 64 1014.8
20260504015324 47 238 0.0 0.0 0.00 0.00 0.00 64 1014.8
20260504014343 47 238 0.0 0.0 0.00 0.00 0.00 63 1014.8
20260504013330 48 238 0.0 0.0 0.00 0.00 0.00 59 1014.6
20260504012328 49 238 0.0 0.9 0.00 0.00 0.00 59 1014.6
20260504011325 49 238 0.0 0.0 0.00 0.00 0.00 56 1014.4
20260504010337 50 238 0.0 0.9 0.00 0.00 0.00 55 1014.4
20260504005323 51 238 0.0 0.9 0.00 0.00 0.00 55 1014.4
20260504004354 52 238 0.0 0.9 0.00 0.00 0.00 50 1014.2
20260504002324 55 238 0.0 0.9 0.00 0.00 0.00 46 1014.1
20260504001335 56 235 0.9 1.7 0.00 0.00 0.00 44 1014.0
20260504000337 56 239 0.9 2.6 0.00 0.00 0.00 42 1013.8
20260503235323 57 264 1.7 4.3 0.00 0.00 0.00 41 1013.8
20260503233339 58 274 1.7 4.3 0.00 0.00 0.00 38 1013.4
20260503232338 59 259 2.6 5.2 0.00 0.00 0.00 38 1013.4